TimeCDT,TemperatureF,Dew PointF,Humidity,Sea Level PressureIn,VisibilityMPH,Wind Direction,Wind SpeedMPH,Gust SpeedMPH,PrecipitationIn,Events,Conditions,WindDirDegrees,DateUTC
12:15 AM,65.5,62.4,90,30.07,10.0,Calm,Calm,-,N/A,,Clear,0,2013-09-29 05:15:00
12:35 AM,64.8,61.7,90,30.06,10.0,Calm,Calm,-,N/A,,Clear,0,2013-09-29 05:35:00
12:55 AM,64.6,61.7,90,30.06,10.0,Calm,Calm,-,N/A,,Clear,0,2013-09-29 05:55:00
1:15 AM,64.6,61.5,90,30.05,10.0,Calm,Calm,-,N/A,,Unknown,0,2013-09-29 06:15:00
1:35 AM,64.4,61.2,89,30.06,10.0,North,4.6,-,N/A,,Unknown,360,2013-09-29 06:35:00
1:55 AM,64.2,61.2,90,30.06,10.0,Calm,Calm,-,N/A,,Unknown,0,2013-09-29 06:55:00
2:15 AM,64.6,61.3,89,30.05,10.0,Calm,Calm,-,N/A,,Unknown,0,2013-09-29 07:15:00
2:35 AM,64.4,61.2,89,30.05,10.0,Calm,Calm,-,N/A,,Unknown,0,2013-09-29 07:35:00
2:55 AM,64.4,61.2,89,30.05,10.0,Calm,Calm,-,N/A,,Unknown,0,2013-09-29 07:55:00
3:15 AM,63.9,60.8,90,30.05,10.0,Calm,Calm,-,N/A,,Unknown,0,2013-09-29 08:15:00
3:35 AM,64.4,61.3,90,30.04,10.0,Calm,Calm,-,N/A,,Clear,0,2013-09-29 08:35:00
3:55 AM,63.3,60.1,89,30.03,10.0,Calm,Calm,-,N/A,,Clear,0,2013-09-29 08:55:00
4:15 AM,63.0,60.1,90,30.03,7.0,Calm,Calm,-,N/A,,Clear,0,2013-09-29 09:15:00
4:35 AM,62.6,59.9,91,30.03,7.0,Calm,Calm,-,N/A,,Clear,0,2013-09-29 09:35:00
4:55 AM,63.0,60.1,90,30.03,10.0,Calm,Calm,-,N/A,,Clear,0,2013-09-29 09:55:00
5:15 AM,63.5,60.8,91,30.03,10.0,Calm,Calm,-,N/A,,Clear,0,2013-09-29 10:15:00
5:35 AM,63.7,60.6,90,30.03,10.0,Calm,Calm,-,N/A,,Clear,0,2013-09-29 10:35:00
5:55 AM,63.0,60.1,90,30.03,7.0,Calm,Calm,-,N/A,,Clear,0,2013-09-29 10:55:00
6:15 AM,62.6,59.9,91,30.04,10.0,Calm,Calm,-,N/A,,Clear,0,2013-09-29 11:15:00
6:35 AM,61.9,59.0,90,30.04,10.0,Calm,Calm,-,N/A,,Unknown,0,2013-09-29 11:35:00
6:55 AM,61.5,58.8,91,30.05,7.0,Calm,Calm,-,N/A,,Clear,0,2013-09-29 11:55:00
7:15 AM,62.1,59.4,91,30.06,7.0,North,3.5,-,N/A,,Clear,350,2013-09-29 12:15:00
7:35 AM,64.0,61.3,91,30.06,7.0,Calm,Calm,-,N/A,,Unknown,0,2013-09-29 12:35:00
7:55 AM,65.3,62.2,90,30.06,10.0,North,-9999.0,-,N/A,,Unknown,0,2013-09-29 12:55:00
8:15 AM,67.5,63.0,85,30.07,10.0,Calm,Calm,-,N/A,,Unknown,0,2013-09-29 13:15:00
8:35 AM,69.3,63.7,82,30.07,10.0,Calm,Calm,-,N/A,,Unknown,0,2013-09-29 13:35:00
8:55 AM,72.3,64.2,76,30.07,10.0,North,-9999.0,-,N/A,,Unknown,0,2013-09-29 13:55:00
9:15 AM,73.8,65.1,74,30.07,10.0,Calm,Calm,-,N/A,,Unknown,0,2013-09-29 14:15:00
9:35 AM,76.1,65.3,69,30.07,10.0,Calm,Calm,-,N/A,,Unknown,0,2013-09-29 14:35:00
9:55 AM,78.1,65.7,65,30.07,10.0,North,-9999.0,-,N/A,,Unknown,0,2013-09-29 14:55:00
10:15 AM,80.4,66.6,63,30.06,10.0,North,-9999.0,-,N/A,,Unknown,0,2013-09-29 15:15:00
10:35 AM,79.5,66.6,64,30.07,10.0,North,-9999.0,-,N/A,,Unknown,0,2013-09-29 15:35:00
10:55 AM,80.6,66.6,62,30.07,10.0,Calm,Calm,-,N/A,,Unknown,0,2013-09-29 15:55:00
11:15 AM,81.7,65.5,58,30.06,10.0,Calm,Calm,-,N/A,,Unknown,0,2013-09-29 16:15:00
11:35 AM,81.7,64.8,56,30.06,10.0,North,-9999.0,-,N/A,,Unknown,0,2013-09-29 16:35:00
11:55 AM,82.0,63.0,52,30.05,10.0,North,-9999.0,-,N/A,,Unknown,0,2013-09-29 16:55:00
12:15 PM,83.1,62.4,49,30.05,10.0,ESE,4.6,-,N/A,,Unknown,120,2013-09-29 17:15:00
12:35 PM,83.3,62.2,49,30.04,10.0,North,-9999.0,-,N/A,,Unknown,0,2013-09-29 17:35:00
12:55 PM,82.9,63.7,52,30.03,10.0,North,-9999.0,-,N/A,,Scattered Clouds,0,2013-09-29 17:55:00
1:15 PM,83.7,62.4,49,30.03,10.0,North,-9999.0,-,N/A,,Scattered Clouds,0,2013-09-29 18:15:00
1:35 PM,82.9,66.0,56,30.02,10.0,North,-9999.0,-,N/A,,Clear,0,2013-09-29 18:35:00
1:55 PM,83.3,66.7,57,30.00,10.0,North,-9999.0,-,N/A,,Scattered Clouds,0,2013-09-29 18:55:00
2:15 PM,83.8,64.9,53,30.00,10.0,NE,6.9,-,N/A,,Scattered Clouds,40,2013-09-29 19:15:00
2:35 PM,82.8,63.1,51,29.99,10.0,North,-9999.0,-,N/A,,Clear,0,2013-09-29 19:35:00
2:55 PM,81.1,62.1,52,29.99,10.0,North,-9999.0,-,N/A,,Clear,0,2013-09-29 19:55:00
3:15 PM,80.4,63.5,56,29.99,10.0,North,-9999.0,-,N/A,,Clear,0,2013-09-29 20:15:00
3:35 PM,79.9,64.6,59,29.98,10.0,North,-9999.0,-,N/A,,Clear,0,2013-09-29 20:35:00
3:55 PM,79.7,65.1,61,29.98,10.0,North,-9999.0,-,N/A,,Mostly Cloudy,0,2013-09-29 20:55:00
4:15 PM,79.3,66.6,65,29.98,10.0,North,-9999.0,-,N/A,,Light Drizzle,0,2013-09-29 21:15:00
4:35 PM,78.3,68.2,71,29.99,10.0,North,-9999.0,-,N/A,,Mostly Cloudy,0,2013-09-29 21:35:00
4:55 PM,78.4,67.5,69,29.99,10.0,North,-9999.0,-,N/A,,Overcast,0,2013-09-29 21:55:00
5:15 PM,78.6,67.5,68,29.98,10.0,North,-9999.0,-,N/A,,Overcast,0,2013-09-29 22:15:00
5:35 PM,77.9,67.6,71,29.99,10.0,Calm,Calm,-,N/A,,Light Drizzle,0,2013-09-29 22:35:00
5:55 PM,77.4,67.1,71,29.99,10.0,North,-9999.0,-,N/A,,Overcast,0,2013-09-29 22:55:00
6:15 PM,77.0,67.5,72,29.99,10.0,North,-9999.0,-,N/A,,Overcast,0,2013-09-29 23:15:00
6:35 PM,76.3,68.0,75,30.00,10.0,North,-9999.0,-,N/A,,Overcast,0,2013-09-29 23:35:00
6:55 PM,76.3,68.2,76,30.00,10.0,North,-9999.0,-,N/A,,Overcast,0,2013-09-29 23:55:00
7:15 PM,76.1,66.6,72,30.00,10.0,North,-9999.0,-,N/A,,Overcast,0,2013-09-30 00:15:00
7:35 PM,75.7,65.5,70,30.00,10.0,North,-9999.0,-,N/A,,Unknown,0,2013-09-30 00:35:00
7:55 PM,75.2,65.1,71,30.00,10.0,North,-9999.0,-,N/A,,Unknown,0,2013-09-30 00:55:00
8:15 PM,74.7,65.3,73,30.00,10.0,North,-9999.0,-,N/A,,Unknown,0,2013-09-30 01:15:00
8:35 PM,73.6,65.7,76,30.00,10.0,North,-9999.0,-,N/A,,Unknown,0,2013-09-30 01:35:00
8:55 PM,73.9,64.9,73,30.00,10.0,North,-9999.0,-,N/A,,Unknown,0,2013-09-30 01:55:00
9:15 PM,72.7,66.6,81,30.00,10.0,North,-9999.0,-,N/A,,Unknown,0,2013-09-30 02:15:00
9:35 PM,73.4,65.7,77,30.00,10.0,North,-9999.0,-,N/A,,Unknown,0,2013-09-30 02:35:00
9:55 PM,73.2,66.2,79,29.99,10.0,North,-9999.0,-,N/A,,Clear,0,2013-09-30 02:55:00
10:15 PM,72.9,66.6,81,29.99,10.0,North,-9999.0,-,N/A,,Clear,0,2013-09-30 03:15:00
10:35 PM,72.7,66.4,81,29.98,10.0,North,-9999.0,-,N/A,,Unknown,0,2013-09-30 03:35:00
10:55 PM,72.5,66.4,81,29.98,10.0,North,-9999.0,-,N/A,,Unknown,0,2013-09-30 03:55:00
11:15 PM,72.5,65.5,79,29.98,10.0,East,4.6,-,N/A,,Unknown,90,2013-09-30 04:15:00
11:35 PM,72.5,64.4,76,29.98,10.0,Calm,Calm,-,N/A,,Unknown,0,2013-09-30 04:35:00
11:55 PM,70.7,65.7,84,29.99,10.0,Calm,Calm,-,N/A,,Unknown,0,2013-09-30 04:55:00